Theta_e
309 308 308 308 308 308 308 309 308 307 308 308 308 308 308 308 308 308 308 308 307 308 308 308 308 308 309 309 309 310 311 312 313 315 317 317 315 316 317 314 313 312 313 314 313 314 315 315 314 313 317 319 317 319 318 319 327 338 335 326 320 321 324 325 326 325 318 318 323 320 318 317 319 321 317 314 317 321 319 316 316 314 313 314 313 313 312 312
308 309 309 309 308 308 308 308 308 309 309 309 309 309 309 309 308 309 308 308 308 308 308 308 308 309 309 309 309 310 312 314 314 316 318 318 316 317 316 313 313 312 313 314 314 314 316 317 314 315 320 320 317 319 320 318 324 340 333 319 326 334 329 325 325 323 318 319 321 320 319 317 318 318 315 315 319 322 319 316 315 315 316 314 313 313 312 312
308 309 309 309 309 309 309 308 308 309 310 310 309 308 309 310 309 309 309 308 309 309 309 310 310 310 310 310 310 312 313 314 316 316 317 319 318 316 314 312 312 312 313 314 314 314 316 316 313 317 322 319 318 321 324 321 320 332 327 321 337 340 329 326 324 320 319 318 319 321 318 317 319 317 315 315 318 319 318 317 316 315 316 315 313 311 310 311
308 309 309 310 310 309 309 308 309 309 310 310 309 309 310 310 310 309 310 310 310 311 311 312 312 312 312 312 312 313 314 315 317 317 317 318 317 314 313 313 312 313 314 314 314 314 315 314 313 318 321 318 321 322 324 324 319 320 323 328 336 327 322 325 324 322 321 317 317 319 317 317 318 316 316 315 317 318 317 317 316 315 314 314 312 307 306 307
307 308 309 310 311 310 310 309 310 310 311 311 310 311 311 311 312 312 312 312 312 313 313 313 313 314 313 313 313 313 316 320 317 314 316 316 315 313 313 312 312 313 314 315 315 315 315 313 313 319 320 317 321 321 321 324 320 319 324 330 329 321 318 322 324 321 318 316 317 318 317 316 316 316 317 316 316 318 316 315 314 313 310 309 309 305 303 303
308 309 310 311 312 312 311 311 311 311 312 312 312 312 313 313 313 313 313 313 313 313 313 313 313 314 314 313 316 315 317 321 316 313 315 315 313 313 313 313 313 313 314 316 315 314 315 313 315 319 320 317 318 317 318 319 317 320 325 326 326 322 319 321 322 319 315 315 317 317 315 314 316 316 317 317 317 317 315 314 312 309 305 304 305 304 305 304
310 310 310 311 312 312 311 312 312 312 312 313 313 313 313 313 313 313 313 312 312 313 312 312 312 313 314 315 318 319 319 319 317 317 315 313 314 314 313 313 312 313 314 315 314 315 317 315 316 319 320 318 316 317 316 316 315 319 324 324 323 319 320 323 321 319 316 314 315 315 313 313 316 316 315 316 316 315 312 308 306 304 302 302 303 303 303 303
311 310 310 311 311 311 312 313 312 312 313 313 313 313 313 313 314 314 314 314 314 314 313 313 312 311 313 315 318 323 324 320 318 319 317 314 314 314 314 313 312 313 312 313 314 315 316 315 316 316 318 317 315 316 314 314 317 320 324 323 320 318 321 322 319 319 317 314 314 313 314 314 315 314 314 316 315 313 308 304 303 302 302 301 302 302 301 300
312 310 309 310 310 311 312 312 312 313 313 314 314 314 314 314 315 316 316 316 316 317 316 315 314 312 312 314 317 324 325 321 319 319 318 315 314 314 314 313 312 312 312 314 314 313 314 317 317 315 317 317 314 315 314 314 317 321 323 321 317 316 318 317 317 317 315 315 313 312 315 314 312 313 315 318 314 310 307 304 303 303 302 301 301 300 300 299
312 310 309 310 310 312 313 313 313 314 314 314 314 315 316 316 317 317 317 318 318 319 318 317 315 312 312 314 318 323 321 320 321 318 317 315 314 314 313 313 313 312 313 314 314 313 314 316 315 313 317 318 313 313 314 314 315 317 320 318 315 315 315 316 317 316 313 313 314 313 316 314 310 312 318 318 311 310 312 306 303 302 302 301 300 299 299 299
311 310 309 310 312 313 313 313 313 314 314 315 316 317 318 318 319 319 319 319 319 319 319 318 315 313 313 315 320 322 319 321 321 317 316 314 314 313 313 314 313 312 314 314 314 314 315 314 312 311 316 315 313 314 314 314 313 314 315 315 317 316 314 315 316 314 313 313 314 314 315 314 309 313 320 315 308 312 315 309 304 303 302 300 300 299 299 298
311 310 311 311 313 313 313 314 315 316 317 317 319 319 319 320 320 319 319 319 319 318 318 317 315 314 313 315 320 320 318 320 319 317 316 314 313 313 314 316 314 313 314 314 315 315 315 314 313 315 316 314 314 315 313 312 312 314 314 314 319 320 317 317 315 314 313 314 315 314 315 317 314 317 320 312 308 311 311 308 304 302 302 300 300 299 298 298
312 311 311 312 313 313 314 315 317 318 319 320 320 320 320 320 319 319 319 318 317 316 316 315 314 313 313 316 317 315 315 318 318 317 316 315 314 315 316 316 316 314 314 315 315 315 315 315 314 316 315 316 318 314 313 313 312 314 313 313 317 319 322 318 312 313 313 314 316 313 317 325 324 321 317 311 310 314 311 306 303 302 301 300 300 299 298 298
313 312 312 313 314 315 316 318 320 321 321 321 320 320 320 320 319 319 319 318 316 315 314 313 313 313 313 317 315 313 315 315 317 317 317 317 316 316 317 316 316 316 315 315 314 314 315 314 313 314 314 315 316 311 315 321 318 314 311 318 321 317 327 325 312 314 315 313 313 312 318 325 327 322 314 309 313 319 314 305 303 303 301 300 300 299 298 297
313 312 314 315 316 317 320 321 321 321 321 321 321 320 320 319 319 319 318 317 315 314 313 312 312 312 314 317 314 313 314 315 317 318 317 318 316 316 317 316 315 315 315 315 314 314 313 314 314 316 314 312 314 316 321 326 326 322 314 325 328 317 326 327 314 316 316 313 311 313 319 320 321 319 311 310 316 321 314 304 303 303 300 300 299 298 298 297
313 314 315 316 318 320 321 321 322 322 322 321 321 321 320 319 319 319 317 315 313 313 312 313 313 313 316 317 314 313 314 315 317 317 317 318 315 315 316 316 315 314 315 313 314 313 312 315 314 314 314 312 319 328 330 325 328 330 319 324 332 320 321 323 316 318 316 314 311 312 319 318 320 319 310 310 317 320 314 304 302 302 300 299 298 298 297 297
314 315 316 317 319 321 322 321 321 321 321 322 321 321 319 319 320 318 315 313 314 315 313 314 313 313 317 316 314 315 314 313 315 316 317 316 315 315 314 314 312 311 313 312 313 312 311 314 312 312 315 315 319 326 326 323 326 332 322 319 326 321 318 320 320 318 313 313 313 312 315 316 319 319 310 309 315 318 311 304 302 301 300 299 298 298 297 296
314 315 316 318 320 321 321 322 321 321 321 321 320 320 320 319 318 316 314 313 314 315 315 313 313 318 321 316 316 316 313 313 315 315 315 316 315 314 313 311 309 309 312 312 312 312 313 316 316 317 317 314 316 318 320 322 326 332 325 321 325 321 319 319 319 318 315 316 315 314 315 316 318 316 311 308 311 314 307 301 302 300 299 299 298 297 297 296
313 315 317 319 320 321 321 321 321 321 321 321 320 320 319 318 317 316 314 314 316 320 321 317 316 324 323 316 314 314 313 314 315 314 314 315 314 312 312 310 311 312 313 314 312 313 317 319 318 318 316 314 315 316 318 321 325 329 326 324 326 324 322 319 318 318 315 314 317 317 316 317 318 316 313 307 306 308 304 301 301 299 299 298 297 297 297 296
314 316 319 319 319 321 321 321 321 322 321 320 320 319 321 324 324 323 318 318 320 322 324 321 318 322 320 316 315 313 314 313 313 314 313 314 313 312 311 309 314 315 314 319 315 312 317 319 318 318 318 317 314 314 315 317 319 321 321 321 323 322 320 318 317 318 314 313 320 319 315 318 317 315 312 307 306 305 303 302 301 299 299 298 298 298 297 297
315 318 320 318 319 320 321 321 321 322 322 320 320 319 324 328 328 327 325 324 320 316 320 320 315 317 317 315 314 313 315 314 313 313 312 313 313 312 313 312 315 316 315 321 317 311 315 317 319 319 316 315 313 312 312 313 314 314 316 318 319 319 318 315 314 316 313 314 321 317 314 319 318 315 310 306 309 307 303 302 300 299 299 298 298 298 297 297
317 321 319 317 319 319 319 320 320 322 322 320 320 318 318 319 319 318 321 327 324 315 317 318 314 317 316 313 314 313 316 318 315 313 312 312 312 313 315 314 317 319 317 317 316 314 316 317 317 315 314 313 313 313 312 313 315 316 317 317 319 319 319 319 319 318 314 314 322 318 314 319 319 314 308 305 306 304 301 302 300 299 299 298 298 298 297 297
318 321 319 318 319 320 319 320 321 322 321 320 319 317 315 316 316 315 317 326 328 320 319 321 319 320 319 317 315 314 316 320 319 317 312 312 313 314 315 315 316 320 317 316 318 319 319 320 316 313 314 314 314 316 316 316 318 320 320 318 321 320 318 324 324 320 316 313 317 315 314 318 317 312 306 302 302 301 300 300 300 299 299 298 298 297 297 297
318 319 318 318 319 321 321 321 322 321 321 320 319 318 317 318 317 315 319 323 325 322 320 319 318 322 324 318 315 316 318 320 321 318 312 312 314 314 315 316 317 318 317 316 318 319 321 321 317 315 316 315 316 317 317 317 320 323 323 319 320 320 318 322 321 319 320 318 315 313 317 325 321 316 311 304 301 301 299 299 299 299 298 298 297 297 297 296
317 318 319 320 320 321 321 322 322 321 321 320 320 319 318 319 316 314 320 323 325 324 319 315 317 321 319 314 314 316 318 319 319 315 311 311 314 314 314 315 316 319 317 315 315 317 319 317 317 318 317 315 317 318 319 320 321 325 326 320 319 320 320 319 318 317 322 325 318 312 321 335 329 320 313 305 303 302 300 300 300 299 298 298 298 297 297 296
319 320 321 322 321 321 321 323 322 320 321 320 320 320 318 318 315 314 321 327 328 327 321 318 319 319 314 312 313 315 320 320 312 310 311 310 312 314 315 315 315 318 317 315 316 318 319 316 316 319 320 319 319 319 320 320 321 324 325 322 319 318 318 319 318 319 325 327 316 309 319 331 327 320 312 306 306 304 301 301 300 299 299 298 298 298 297 296
320 321 322 323 321 321 322 323 321 320 323 322 319 319 317 317 314 312 321 329 329 326 323 318 316 316 313 310 311 317 326 321 311 309 311 311 311 312 317 317 315 315 315 317 321 321 320 317 316 317 320 321 320 320 320 319 324 327 323 323 324 321 320 322 320 321 324 323 318 318 319 320 323 320 310 305 309 306 301 302 300 299 299 298 298 297 297 296
320 320 322 322 321 323 322 322 321 319 321 322 319 318 317 315 314 315 326 335 331 323 320 317 312 312 311 308 311 317 318 315 315 313 308 309 310 311 317 320 319 318 315 318 326 322 317 317 319 318 318 320 320 323 321 318 323 325 319 319 324 322 323 326 325 322 319 316 322 326 317 317 325 321 308 306 312 312 305 302 300 299 299 298 298 297 296 296
320 320 321 322 322 323 322 322 322 320 321 320 319 319 317 314 313 319 329 334 328 319 317 315 310 310 311 309 311 313 310 310 316 313 308 309 310 311 316 319 321 319 313 316 324 321 315 314 317 319 320 321 322 322 319 318 320 318 314 317 320 321 323 326 327 323 320 319 323 324 317 318 326 321 310 308 314 315 307 301 300 300 299 298 298 297 296 296
319 321 321 322 323 323 322 322 322 322 321 320 319 317 315 314 316 325 332 331 325 319 314 313 312 311 313 313 313 311 310 311 312 311 311 312 311 311 311 312 317 320 317 318 321 320 316 311 312 318 319 320 321 316 312 316 315 312 316 320 322 324 324 326 326 322 321 322 321 322 319 318 322 324 317 312 312 312 308 303 300 299 299 298 298 297 297 296
319 320 321 322 323 323 322 322 322 323 321 319 319 315 314 318 322 331 334 327 323 320 314 313 313 311 314 317 317 313 311 312 311 313 314 312 313 314 312 311 316 322 322 321 321 319 317 314 314 316 315 316 319 315 312 314 313 315 322 324 323 325 324 326 326 322 322 324 321 319 317 314 320 324 319 314 309 305 306 305 301 299 299 298 298 298 297 297
319 320 321 322 324 322 322 322 322 323 321 319 318 316 319 324 326 332 329 322 326 324 318 318 313 311 314 316 317 314 313 314 311 314 317 315 316 315 315 316 319 323 323 321 323 321 319 319 317 315 312 314 321 319 315 315 314 317 323 323 324 325 322 325 326 322 324 323 316 315 315 313 318 319 316 314 308 301 302 303 300 298 298 297 298 298 297 297
319 320 320 321 323 322 322 322 322 323 321 318 318 319 324 329 331 331 325 324 329 322 318 321 316 314 315 315 316 313 313 315 311 313 316 315 316 315 315 317 317 321 324 320 320 322 322 322 316 313 313 314 319 319 318 319 316 316 320 322 326 325 323 327 325 319 322 321 313 312 315 316 320 318 311 306 303 298 299 300 299 298 297 297 297 297 297 297
318 320 320 320 322 322 322 322 322 323 320 318 321 323 324 329 332 329 325 326 326 320 317 318 315 315 314 316 320 315 313 315 311 313 315 312 315 318 317 315 313 319 325 320 319 322 326 327 320 317 317 316 314 316 320 322 317 315 317 319 323 325 326 328 326 322 323 322 315 311 315 322 324 314 303 299 299 297 298 299 299 298 297 297 297 297 297 297
318 319 320 320 320 321 322 321 321 322 320 318 322 325 326 329 329 328 327 325 323 321 319 317 316 315 315 318 319 315 314 316 312 313 315 314 318 321 322 317 313 319 324 321 321 319 321 327 325 316 313 312 313 315 318 320 316 314 314 316 319 323 323 322 324 323 321 322 318 315 319 324 318 306 298 299 298 297 297 297 298 298 297 296 296 296 296 296
319 318 319 319 320 320 321 321 321 320 319 320 325 326 326 328 327 327 326 322 323 322 318 319 319 318 318 319 319 315 314 317 316 314 314 316 317 319 322 321 315 314 318 322 324 321 320 325 321 313 311 312 313 315 315 317 319 314 313 317 318 317 319 321 321 318 316 319 320 319 320 320 316 307 300 299 299 297 297 297 297 297 296 296 296 295 295 295
319 319 319 319 319 320 320 321 321 318 319 322 326 326 325 325 324 324 323 322 321 320 318 321 321 320 321 321 320 319 317 318 316 314 316 317 317 316 319 323 316 311 315 320 323 323 324 327 320 314 315 312 308 312 315 314 316 317 317 319 315 314 319 323 323 320 318 320 321 320 321 320 320 314 303 300 300 299 297 297 296 296 296 296 295 295 295 295
318 318 318 318 319 320 320 321 319 318 320 324 326 325 324 324 321 319 321 322 320 319 321 324 322 321 322 322 322 320 318 319 317 316 319 318 318 319 319 320 316 311 313 315 317 320 320 324 322 314 314 313 308 313 317 312 311 317 319 315 315 319 321 321 321 321 321 320 321 324 322 319 320 317 310 308 305 300 298 296 296 296 295 295 295 295 295 295
317 317 318 318 318 319 320 320 318 318 322 325 326 324 323 323 322 321 321 321 321 321 322 325 324 323 323 323 325 321 318 320 318 317 320 317 318 318 315 317 316 313 315 313 316 321 318 320 323 314 311 314 312 314 320 317 311 313 314 311 315 319 321 321 319 320 322 320 320 323 321 322 323 319 319 319 308 300 298 296 296 296 295 295 295 295 295 295
315 319 320 317 317 319 319 317 317 320 323 326 326 324 322 322 322 323 321 320 322 321 322 327 326 325 324 321 323 323 320 320 318 318 321 318 318 318 315 318 317 314 315 312 314 321 317 317 323 317 311 313 316 316 318 317 313 313 314 315 315 315 318 320 318 320 323 321 322 321 318 326 326 314 315 316 306 299 298 297 296 295 295 295 295 295 294 294
315 321 320 315 316 318 317 317 319 322 323 325 325 323 321 321 321 322 319 319 322 320 321 327 325 324 325 321 321 322 322 323 320 319 321 318 319 320 317 318 317 315 315 314 315 319 318 319 322 320 315 317 321 317 312 313 315 314 315 316 316 316 317 319 318 319 320 319 323 321 319 324 318 306 307 309 303 299 297 297 296 296 296 295 295 295 294 294
317 322 318 313 316 317 316 319 321 322 323 324 324 322 320 320 321 320 318 318 322 321 321 324 323 323 324 322 321 322 322 324 322 321 323 321 321 322 318 317 318 318 319 320 319 318 320 322 322 321 320 319 318 313 309 311 314 314 315 315 316 316 317 318 319 320 318 317 319 319 319 319 310 302 304 305 303 299 297 297 297 296 296 295 295 295 294 294
318 319 314 312 315 316 318 322 322 322 322 322 322 322 320 320 320 320 318 318 320 321 321 322 321 321 322 322 321 321 321 324 323 323 325 324 322 322 320 319 320 319 320 321 318 316 318 321 320 322 324 319 315 313 312 312 312 314 316 316 316 317 317 317 317 318 319 318 318 317 319 316 308 303 303 302 301 300 297 297 297 296 296 295 295 295 295 294
315 314 312 312 314 315 320 323 323 322 322 320 321 320 319 319 320 319 319 318 319 322 322 321 320 320 321 321 321 321 321 322 322 321 322 323 321 317 316 318 318 318 318 318 319 318 318 320 321 321 323 321 317 317 316 315 313 315 317 316 315 316 315 313 313 315 316 318 318 316 317 316 310 305 304 301 300 299 298 297 297 296 296 296 296 296 295 294
314 314 313 312 312 314 318 320 321 322 321 320 321 320 319 319 319 319 319 318 320 321 321 321 320 320 320 319 319 320 321 321 321 320 318 319 318 315 315 316 315 317 319 318 318 318 318 320 321 320 321 321 319 320 320 319 316 315 315 315 314 313 313 313 314 315 315 317 318 315 315 316 311 307 307 305 301 299 299 298 297 297 297 297 297 296 296 295
316 315 313 313 313 313 315 316 317 320 320 319 321 320 319 319 319 318 318 318 319 320 320 321 320 319 319 319 319 320 320 319 320 320 319 319 319 316 313 312 313 316 320 318 317 319 320 319 319 319 320 318 318 319 317 316 317 316 315 316 315 311 310 312 314 314 314 315 316 315 314 314 312 310 310 308 304 303 303 300 299 299 298 298 298 297 296 295
316 315 313 314 314 314 315 316 317 318 318 319 320 319 319 320 319 318 317 318 319 318 319 320 319 319 319 319 319 320 319 318 318 319 319 320 319 314 309 310 312 313 315 315 314 318 320 318 317 318 318 316 316 316 313 312 315 316 315 315 313 309 308 310 311 312 313 313 313 313 311 311 313 311 310 310 308 306 306 304 302 300 299 297 297 296 296 296
312 313 312 312 314 315 315 315 316 316 316 317 317 318 319 320 320 320 318 317 318 318 319 319 318 319 319 318 319 320 318 318 317 317 318 318 318 314 310 311 311 310 312 312 311 315 319 318 317 316 315 314 313 313 312 311 311 312 313 313 312 308 307 308 309 309 310 311 311 310 308 308 309 308 308 310 308 305 306 306 303 301 299 298 298 298 298 297
309 310 309 309 312 314 314 314 315 316 315 315 316 316 318 318 319 319 318 317 317 317 318 320 318 318 318 317 318 318 318 319 318 317 317 316 317 316 315 315 312 308 310 311 310 313 317 317 315 313 313 313 311 309 309 308 308 308 309 309 309 306 306 307 306 305 305 306 307 306 306 305 304 304 304 305 305 305 305 304 301 300 301 302 301 300 299 296
308 309 308 308 309 310 311 314 315 315 314 314 314 314 315 316 318 318 317 317 318 317 317 318 318 318 317 317 318 318 318 318 318 317 316 315 316 316 316 316 314 309 308 310 310 310 313 314 311 310 312 312 308 306 305 304 305 306 306 306 304 304 304 304 304 303 303 304 304 303 303 302 301 301 301 302 304 304 304 302 301 301 302 302 301 299 298 296
300 300 303 309 309 308 310 312 314 314 314 313 314 313 313 314 315 316 316 315 317 318 317 317 317 316 315 315 317 318 317 317 318 317 316 315 315 315 315 316 314 311 310 309 309 310 311 310 307 307 313 312 304 303 304 302 301 302 303 303 301 302 304 303 302 303 303 303 303 302 302 302 301 301 302 303 304 302 301 302 302 301 300 300 301 301 299 298
297 297 300 307 310 308 308 310 311 313 313 313 313 313 313 314 313 315 316 315 315 316 315 317 317 316 316 316 316 317 316 315 313 311 311 312 313 313 313 313 310 311 311 308 308 309 308 309 308 308 312 309 301 300 303 302 304 305 304 302 300 301 302 301 301 302 301 301 302 302 302 301 301 301 301 301 302 301 301 301 301 301 300 298 300 302 302 302
Wind_Speed
3 3 4 3 3 3 3 2 2 2 1 1 1 0 1 1 1 1 2 3 3 5 5 6 7 7 8 9 10 12 14 15 15 12 7 6 5 5 3 1 2 4 6 6 7 6 3 2 1 3 3 3 4 3 4 4 3 4 4 3 0 2 3 4 6 5 3 3 5 4 2 2 4 5 3 3 4 5 5 4 4 4 5 7 10 9 11 13
4 4 4 3 2 2 2 2 1 1 1 1 1 0 1 0 1 1 2 3 3 4 5 6 6 6 7 8 10 12 14 15 14 10 7 4 6 7 3 3 3 5 7 7 7 6 5 1 0 5 5 3 3 3 3 3 3 4 3 2 2 5 4 5 7 5 2 2 5 4 3 2 4 3 2 3 6 7 8 7 1 2 8 9 11 10 12 11
5 4 4 3 3 2 2 1 1 1 1 1 0 0 1 1 1 2 2 3 3 4 5 6 6 6 7 8 9 11 14 12 9 6 2 4 9 7 4 5 5 7 7 5 6 5 5 2 3 4 4 2 1 3 3 2 1 2 3 1 5 6 4 5 6 6 5 3 3 5 2 2 5 4 1 2 6 7 6 7 1 3 7 7 8 10 13 10
5 5 4 4 3 3 2 2 1 1 0 1 1 1 1 0 1 2 3 3 4 5 5 6 7 7 7 8 8 10 11 8 3 1 4 7 8 6 5 6 6 8 7 4 6 5 2 2 4 4 4 2 3 3 1 2 1 1 4 3 5 3 2 5 6 6 6 3 2 3 2 3 5 3 1 1 4 8 7 6 4 6 8 8 8 9 11 12
5 5 4 4 4 4 2 2 2 1 0 1 0 1 1 2 2 3 4 5 6 6 7 7 8 7 7 7 7 8 8 5 2 2 5 7 6 5 4 5 7 9 7 4 5 4 1 3 5 4 4 1 3 3 1 2 2 1 3 5 5 4 2 6 6 5 4 2 1 3 4 5 2 1 2 1 2 7 4 1 1 5 7 6 6 7 11 13
6 6 5 5 4 3 3 2 1 1 0 1 1 2 2 3 3 4 5 6 6 7 8 8 8 7 6 5 5 4 3 0 3 2 6 7 6 5 4 4 6 9 9 4 3 3 2 4 5 2 2 2 0 1 3 3 2 1 4 3 3 4 4 5 2 3 1 2 2 2 4 3 3 4 3 3 8 9 1 6 5 6 7 9 11 9 9 10
7 6 5 5 4 3 3 2 1 1 1 2 2 3 3 4 4 5 6 6 6 7 8 8 8 7 5 4 3 3 3 4 6 3 6 8 7 5 3 3 6 9 10 6 2 3 3 4 2 3 4 2 1 2 3 2 4 2 3 5 3 3 5 6 4 4 1 1 6 2 3 4 3 6 3 4 11 4 5 8 9 11 13 14 12 9 8 9
7 6 5 5 4 3 3 2 2 2 1 1 2 3 4 5 5 5 6 6 6 7 7 7 7 5 4 1 1 3 2 5 5 4 7 8 8 5 3 4 6 9 10 7 4 4 4 4 4 4 3 0 3 2 0 2 3 2 4 4 3 2 6 7 6 7 6 5 5 2 5 7 6 3 2 10 10 5 7 9 10 11 13 12 10 8 8 9
7 6 5 4 4 4 3 3 3 2 1 1 2 3 4 5 5 6 6 6 7 6 7 6 5 4 3 1 4 2 3 4 3 3 6 8 8 6 4 4 6 8 9 7 5 6 5 4 4 4 3 2 4 2 0 1 2 4 5 3 4 5 6 7 7 7 4 4 3 3 9 6 3 2 3 11 4 8 9 9 8 9 11 9 8 8 8 9
7 6 5 4 4 4 3 3 3 2 1 2 3 3 4 5 5 6 6 7 7 6 7 5 4 2 3 2 5 1 4 2 2 3 4 7 7 5 5 4 5 8 8 6 6 7 5 5 4 4 5 3 3 2 1 2 2 4 4 3 5 7 7 5 7 6 2 4 5 6 8 5 2 1 2 5 4 7 10 10 7 9 10 8 8 7 9 10
7 6 5 4 4 4 4 4 3 2 2 2 3 3 5 6 6 7 7 8 7 7 6 4 3 2 3 4 5 3 4 2 3 3 4 6 6 5 5 4 5 8 8 5 5 6 4 6 6 6 2 2 3 1 1 3 3 2 2 4 7 7 7 6 6 6 2 2 5 7 5 3 2 1 5 2 6 7 11 9 8 10 7 8 8 7 9 11
8 6 5 5 6 5 5 4 3 2 2 2 4 4 5 7 7 7 8 8 8 6 6 4 3 3 3 2 3 7 6 3 4 4 5 5 5 5 4 3 5 7 7 4 4 5 4 6 8 5 2 3 2 0 2 3 3 1 1 4 8 8 7 7 3 2 0 1 4 6 2 4 1 6 7 5 7 8 12 8 7 8 6 7 7 6 8 11
9 8 7 7 7 6 5 4 2 2 3 3 5 5 6 8 8 8 8 8 7 6 5 3 3 5 4 0 5 10 10 7 5 4 5 5 4 4 3 3 5 4 5 4 5 5 5 6 7 4 3 5 1 1 2 2 1 1 3 1 5 7 6 7 1 3 3 1 3 3 3 6 5 11 7 3 6 9 10 6 6 6 6 6 6 6 7 11
11 9 9 8 7 6 5 3 2 3 4 5 6 6 8 8 8 9 9 8 6 5 4 1 3 6 4 3 5 6 9 9 7 7 7 5 4 4 4 4 4 4 4 5 6 6 4 5 6 4 2 3 1 1 3 5 3 1 2 2 3 2 5 7 1 0 3 1 1 3 3 6 9 10 5 2 5 10 8 5 6 5 5 5 5 6 6 9
12 11 9 7 6 5 4 3 2 4 5 7 7 7 8 8 9 9 8 7 5 3 1 2 5 5 2 5 5 4 7 7 8 9 7 7 6 5 5 6 5 6 6 6 7 5 4 5 5 3 1 2 4 3 2 5 3 2 1 3 3 2 5 10 4 4 2 2 2 4 2 5 10 7 3 3 5 11 8 5 6 5 6 5 5 6 5 7
14 13 10 7 6 4 4 3 3 5 6 8 7 8 8 9 9 8 6 4 3 2 3 3 5 5 1 3 2 2 5 5 7 8 7 8 7 5 7 8 6 6 6 5 6 4 4 4 3 2 2 1 4 4 3 4 4 3 1 3 3 2 3 8 4 2 1 0 1 1 2 3 7 5 4 5 6 10 8 6 6 5 6 5 5 5 5 5
14 13 9 7 7 5 4 3 3 5 7 8 7 7 8 9 8 5 3 2 3 4 4 4 5 3 1 2 1 3 4 5 6 7 8 8 6 6 8 7 4 6 6 4 4 3 3 4 1 0 2 2 3 5 3 3 5 3 0 2 4 3 3 4 4 3 4 3 0 1 2 5 9 8 5 7 6 9 8 6 6 5 5 5 5 5 5 6
15 12 9 9 9 7 5 3 4 6 7 8 7 7 7 6 3 1 1 4 4 4 3 2 4 1 3 2 2 2 2 5 6 8 8 7 7 7 6 4 5 7 5 3 2 1 2 3 2 0 3 2 2 5 3 6 5 4 3 3 3 2 4 5 4 3 5 4 2 1 4 7 12 10 5 8 5 9 8 6 6 5 5 5 5 5 5 6
16 13 10 10 10 8 5 2 4 6 7 7 6 5 3 2 1 1 3 4 3 1 1 3 3 2 3 3 2 2 5 6 7 7 8 8 8 7 5 5 6 6 4 1 0 0 1 3 3 1 1 3 6 8 9 9 7 7 5 4 4 4 5 6 5 5 2 4 5 5 6 7 11 10 5 7 6 10 7 6 6 4 5 4 5 5 5 6
17 13 10 12 11 8 5 2 5 6 7 6 4 1 0 1 2 2 2 2 4 5 2 5 6 3 3 3 2 5 5 5 4 5 8 9 10 8 5 4 5 5 3 3 2 0 3 3 3 5 7 8 10 11 10 5 5 5 3 3 4 5 6 5 5 5 1 1 6 6 4 7 11 7 5 5 5 8 6 6 6 4 4 4 5 5 5 5
16 13 12 14 12 7 5 3 6 6 7 7 3 1 2 3 2 2 2 3 9 9 6 6 6 6 5 2 6 9 5 2 1 2 9 9 9 8 1 2 4 1 1 3 3 2 4 4 8 11 9 7 7 9 7 3 3 3 2 2 4 5 6 7 6 5 1 4 5 1 2 8 10 4 6 4 6 6 3 6 5 5 5 4 5 5 5 4
16 14 15 15 10 6 5 4 6 7 8 7 3 2 2 2 2 0 1 3 8 8 9 7 4 8 7 3 6 7 3 1 1 1 8 8 5 5 2 3 4 3 2 2 3 2 2 4 12 10 4 3 2 4 5 3 2 3 2 2 4 4 4 7 6 5 0 4 3 1 3 8 7 3 6 5 6 4 3 5 5 4 5 4 4 4 4 4
19 16 16 14 9 6 6 5 7 9 9 7 4 2 2 1 1 1 3 0 6 4 5 6 5 7 6 4 6 7 3 5 3 4 9 9 3 4 4 4 5 3 2 4 5 4 3 7 11 5 5 4 2 3 7 3 2 3 3 3 4 3 1 4 5 5 2 1 2 2 3 6 4 3 5 5 5 5 6 7 6 5 5 4 4 4 5 4
22 18 17 13 9 6 5 6 9 11 10 8 7 6 2 1 1 1 2 0 4 4 4 6 5 5 5 4 6 9 5 4 3 4 11 11 4 3 4 5 5 4 4 7 7 6 7 8 2 5 6 6 5 4 6 5 1 3 5 6 5 4 5 6 4 5 4 3 2 1 3 5 4 3 2 3 4 5 5 6 7 5 4 4 4 5 5 3
23 19 16 13 9 7 7 8 10 11 7 6 8 8 4 2 3 3 3 1 3 5 4 3 3 4 5 3 6 8 3 2 2 3 10 11 6 4 2 3 4 5 6 6 6 5 9 6 4 5 3 5 5 6 5 7 3 4 6 9 9 8 8 6 2 5 4 4 3 2 3 5 4 2 3 3 3 4 3 4 6 4 4 4 4 4 4 3
24 21 19 16 11 9 8 5 7 7 6 5 6 7 6 5 5 4 3 3 4 4 1 2 2 4 5 3 4 5 3 2 2 2 7 8 5 4 2 1 1 4 5 5 3 3 5 4 3 5 4 6 6 5 5 7 5 3 5 8 10 7 6 5 1 2 0 3 3 2 1 5 5 1 4 5 4 4 2 3 4 3 4 4 3 3 3 3
27 24 23 19 15 14 9 3 5 7 4 5 7 8 7 7 6 4 2 3 5 3 3 1 0 3 5 2 2 5 3 3 1 3 3 4 1 3 2 3 1 2 3 4 1 3 4 2 2 5 5 5 5 5 6 7 7 3 4 6 7 6 6 5 5 4 3 2 4 3 2 3 5 3 4 6 6 3 2 3 3 3 3 3 2 2 2 3
28 26 22 19 19 19 12 3 6 9 3 3 8 10 7 7 7 3 3 2 4 2 3 1 1 2 2 1 3 4 2 1 3 0 1 3 1 3 1 5 6 4 2 5 4 4 2 2 3 6 5 4 6 4 7 9 5 5 3 6 6 6 6 4 5 3 1 2 4 4 1 2 6 3 1 3 3 3 5 5 5 4 4 4 3 1 2 2
29 27 23 21 20 21 17 10 7 8 6 4 10 11 8 8 6 5 3 4 1 2 1 1 2 1 1 2 3 3 1 2 2 2 2 3 0 3 2 5 6 4 1 3 5 4 0 3 5 7 5 5 4 1 6 9 4 3 5 7 5 5 5 4 4 3 2 1 4 6 4 2 6 3 3 2 4 6 5 5 5 5 5 4 4 3 2 1
32 30 27 25 22 22 21 18 14 10 6 7 11 11 10 6 3 3 4 5 1 1 1 1 2 1 4 5 0 1 1 1 0 1 2 1 2 5 2 2 5 4 2 4 2 3 2 2 2 4 3 5 4 3 2 4 3 5 6 6 6 5 4 3 2 4 2 3 5 9 9 5 4 4 4 4 3 4 5 5 5 5 5 5 4 4 4 3
35 32 30 28 27 26 17 13 21 18 8 11 13 11 8 2 2 4 7 2 1 1 2 2 1 3 6 6 2 1 2 1 1 2 2 1 2 4 1 2 4 4 3 4 3 4 5 3 2 2 2 4 6 5 2 3 3 5 4 4 3 3 4 4 4 3 1 5 3 5 5 5 5 5 3 4 3 2 5 7 10 9 8 6 5 5 5 4
36 34 32 29 27 28 19 10 20 22 14 14 14 8 3 1 2 6 4 1 1 3 4 4 3 4 6 4 3 4 3 1 1 3 4 3 3 3 2 4 4 2 2 4 3 4 3 4 3 2 1 4 6 4 3 5 4 4 4 5 3 2 3 2 3 0 3 6 3 1 1 2 7 6 4 4 4 4 5 6 10 13 11 8 7 6 5 4
36 35 32 30 27 28 26 18 17 21 20 17 11 4 2 4 7 7 6 3 2 3 3 4 3 4 7 4 2 4 2 1 3 3 2 3 3 4 3 2 6 4 1 3 2 1 3 5 1 1 2 3 7 5 2 1 1 4 5 5 4 2 1 3 3 1 4 5 2 1 2 2 5 3 2 4 5 5 6 6 9 12 12 10 8 7 6 5
36 36 34 32 30 29 29 25 19 21 25 18 8 3 4 7 6 7 10 7 2 2 2 4 5 5 6 4 4 5 3 3 5 4 2 3 3 4 4 4 5 4 3 3 2 4 2 4 2 5 2 3 8 6 5 5 4 3 3 4 4 4 4 4 3 3 4 4 2 2 2 3 3 1 2 4 3 4 3 3 7 9 8 8 7 6 6 6
35 37 35 33 32 31 31 29 26 26 26 15 5 6 9 10 4 5 9 6 3 2 2 3 6 6 4 3 3 5 4 3 4 5 3 4 4 4 4 6 6 5 4 3 2 2 3 5 6 3 1 4 7 4 5 6 2 2 2 3 2 4 4 2 3 5 3 2 3 2 3 4 4 1 1 1 2 4 4 5 8 8 7 6 6 6 6 5
37 37 35 33 32 32 34 34 31 31 25 10 4 9 10 7 3 3 5 5 5 6 6 3 3 4 4 2 2 4 2 1 4 4 2 3 4 4 4 5 7 9 6 5 3 2 2 4 5 2 2 2 5 3 3 3 3 2 2 3 4 3 5 2 2 1 3 2 4 2 3 5 1 1 3 4 4 4 3 4 7 7 7 7 7 7 6 6
36 32 28 30 33 34 37 38 35 33 20 7 8 11 6 3 3 3 3 4 5 7 8 4 3 5 5 3 4 5 3 2 3 3 3 3 3 5 5 3 5 12 10 5 2 3 4 3 5 2 2 2 2 2 3 2 4 5 2 5 3 2 4 3 1 2 1 4 4 1 5 5 2 3 3 3 0 2 3 5 6 7 8 8 8 7 7 7
31 22 17 26 36 37 37 39 36 27 10 4 12 12 5 3 3 1 2 3 5 6 7 6 5 5 5 5 4 4 5 4 4 4 3 3 3 4 6 3 3 9 9 4 1 2 4 1 6 1 3 2 2 3 2 3 3 5 3 3 3 2 1 2 2 2 3 5 4 3 5 5 5 5 1 3 8 8 7 7 7 9 10 8 8 8 8 7
22 12 7 19 34 36 36 39 31 16 5 6 13 12 5 5 4 2 3 2 4 5 6 5 3 2 4 6 4 4 6 6 5 5 3 3 3 3 4 3 2 4 5 6 4 2 3 2 4 2 1 1 3 2 3 2 1 3 1 0 1 2 3 2 2 2 3 5 5 5 5 4 5 6 7 10 12 12 11 10 10 12 11 10 10 9 9 8
13 5 2 13 29 34 36 33 18 8 7 8 9 7 4 4 4 3 3 2 2 2 3 3 3 3 4 4 3 3 4 5 6 5 3 4 3 4 3 3 3 2 2 5 4 1 2 2 3 2 2 1 1 2 5 6 4 2 2 2 2 1 1 1 2 2 3 4 4 5 6 5 4 3 7 8 8 12 15 13 12 11 11 11 11 10 9 8
7 5 2 13 29 33 31 20 6 6 8 5 5 5 3 3 3 3 2 1 2 1 2 3 3 4 5 4 2 4 4 4 5 4 3 4 3 3 3 3 6 5 3 4 4 3 2 3 3 2 1 3 4 4 4 5 4 4 5 6 6 4 2 3 5 2 2 3 4 4 6 6 3 0 2 3 4 9 13 11 10 10 12 12 10 9 8 8
5 6 2 16 35 36 21 7 4 6 7 5 4 4 3 3 3 4 2 2 2 1 2 2 2 2 4 4 3 4 5 4 5 4 3 5 5 4 4 4 6 6 5 4 3 3 2 3 2 2 3 5 5 3 1 3 2 3 3 4 4 4 4 6 8 4 1 2 1 1 4 5 1 0 2 3 5 7 9 9 9 10 11 11 9 8 8 9
4 3 3 16 37 34 14 6 6 6 5 4 4 3 4 3 3 3 3 2 2 2 2 1 2 3 4 3 3 5 5 3 4 4 3 4 4 4 4 6 5 5 4 2 2 2 2 2 2 2 2 2 4 4 3 2 3 2 2 1 3 3 3 4 6 2 1 3 1 1 5 5 1 1 2 3 3 5 7 8 9 9 8 8 9 9 9 9
2 2 3 12 29 24 9 7 10 9 6 3 5 5 2 2 5 6 6 6 4 3 3 3 3 3 2 2 3 5 5 3 3 4 3 4 3 2 2 4 4 4 3 2 3 3 2 2 3 1 2 3 4 3 3 3 0 2 3 1 2 2 3 1 1 2 1 4 5 4 8 5 2 3 3 3 3 3 4 5 6 6 6 7 8 9 8 7
3 2 2 5 15 12 4 3 5 7 6 5 8 9 4 1 4 6 7 7 4 4 4 2 2 3 2 2 2 3 5 5 3 3 3 3 2 3 3 1 2 3 3 2 3 4 3 3 4 4 6 8 6 4 4 3 1 1 2 3 4 4 5 2 1 3 4 4 6 7 8 4 3 4 4 4 4 2 2 3 2 3 4 6 7 8 7 6
2 1 1 2 3 4 2 1 2 2 4 6 7 8 9 7 2 2 6 6 4 5 4 1 3 3 2 3 4 4 6 6 3 3 3 3 3 2 2 2 1 2 3 3 3 3 3 2 4 6 9 9 6 6 5 4 3 3 5 7 6 6 6 4 2 3 5 3 5 8 3 0 2 3 4 4 1 1 4 3 4 5 7 8 8 7 6 5
1 1 3 3 1 2 3 2 3 3 2 4 4 5 10 10 3 1 5 4 4 6 3 1 4 5 6 7 7 6 7 6 4 4 4 4 2 1 1 2 3 0 3 4 1 2 4 3 6 7 9 7 3 3 4 5 5 8 8 9 8 5 5 6 5 6 5 4 8 7 4 3 6 5 5 6 4 4 5 5 6 8 8 7 6 5 6 6
1 1 2 1 1 4 5 5 7 8 5 4 3 2 7 10 8 5 4 2 3 7 5 2 5 10 11 10 8 6 6 6 6 5 4 3 3 1 1 1 1 0 3 2 1 3 4 5 5 6 7 6 2 2 4 5 4 4 6 9 7 6 7 8 10 9 6 6 10 6 5 7 8 5 7 8 7 6 6 7 7 6 6 5 5 6 8 8
1 1 1 1 2 2 4 3 5 9 10 7 4 4 7 11 11 7 4 4 3 6 8 8 10 13 12 10 9 7 8 8 7 7 6 4 4 4 1 1 2 1 2 3 1 1 3 4 3 5 5 5 3 3 3 4 4 4 7 10 6 6 8 10 10 7 5 6 10 7 5 8 8 7 7 7 6 6 6 6 5 4 5 6 7 8 8 7
1 1 0 1 1 1 1 2 5 7 9 7 6 7 7 9 10 6 3 5 6 5 8 12 14 11 10 10 9 9 10 8 7 7 7 5 4 4 4 3 3 1 1 3 2 1 2 2 3 4 3 4 2 2 2 2 3 6 10 10 4 4 8 11 7 2 2 7 10 8 8 11 9 6 5 5 5 5 6 7 6 6 7 7 7 7 7 6
3 2 2 2 1 1 0 1 5 6 7 8 8 6 6 9 10 6 2 3 6 5 7 13 13 5 5 7 9 12 12 8 7 7 8 8 6 6 5 5 7 6 4 4 3 2 3 2 2 3 3 3 1 3 3 2 2 7 14 11 6 6 10 8 4 5 9 11 9 6 7 10 8 2 3 5 6 6 7 8 7 7 6 6 7 8 7 7
4 3 2 2 2 3 2 2 4 5 5 6 7 6 6 7 7 6 3 3 4 4 4 9 10 4 4 9 13 14 10 6 6 5 4 4 2 1 2 4 6 7 7 5 2 1 4 4 3 3 4 2 2 4 3 4 3 9 12 9 10 12 12 6 4 9 12 8 6 7 8 8 5 1 3 7 6 6 7 7 7 6 5 6 7 7 7 7
Wind_Direction
261 249 238 232 231 242 240 236 232 231 204 226 258 281 321 306 300 305 298 306 310 312 318 318 323 327 329 332 331 332 331 327 327 318 300 288 243 196 209 212 206 194 173 170 165 155 128 85 79 27 35 44 12 335 348 7 59 52 78 93 1 189 187 179 186 189 150 270 273 320 25 126 289 301 321 322 338 327 316 298 254 289 291 258 271 288 311 318
269 259 247 230 225 233 233 236 222 193 177 186 194 168 26 72 241 284 289 307 315 314 318 317 323 325 329 333 332 335 333 329 326 314 298 275 187 174 172 151 173 183 174 176 176 155 126 145 326 53 44 41 349 346 359 352 63 77 116 89 249 203 207 196 183 191 174 247 252 292 318 222 239 262 350 311 290 331 330 303 184 306 299 291 293 309 327 336
264 256 250 232 224 216 195 209 208 199 169 143 161 108 66 104 240 285 299 309 308 309 311 312 318 323 330 333 337 340 336 333 325 314 310 161 162 164 153 144 159 174 176 181 184 154 117 158 148 85 46 54 339 0 25 355 35 135 120 78 247 212 235 236 200 209 219 214 253 291 299 201 240 243 331 283 287 321 306 284 294 314 311 309 307 330 340 359
260 254 247 235 228 213 193 204 220 217 107 75 68 51 47 320 300 298 306 310 306 306 305 307 311 318 328 332 339 339 341 349 316 268 133 152 156 151 147 151 159 174 183 180 179 168 106 108 113 79 59 58 330 5 34 302 350 149 133 182 227 187 243 246 209 219 231 196 215 283 349 302 261 211 232 301 331 316 280 252 239 281 313 315 315 350 12 37
256 252 244 241 234 218 205 212 218 193 114 57 12 334 329 312 311 307 308 307 307 308 303 303 302 310 321 326 336 335 357 20 290 194 161 167 154 147 152 158 164 181 182 161 166 168 153 103 92 58 60 61 336 27 260 268 105 148 220 206 197 159 244 257 199 197 213 171 244 321 327 296 278 155 230 179 297 274 275 358 266 294 322 341 0 25 40 46
258 247 237 245 240 220 217 217 222 214 267 312 304 308 314 308 310 309 306 306 307 306 302 299 298 304 310 317 328 339 40 48 266 214 194 186 166 157 156 168 173 188 190 174 155 144 112 77 74 75 62 36 231 164 252 284 72 195 275 277 230 183 235 276 218 199 152 78 288 294 294 297 10 307 246 185 237 241 343 38 45 29 40 59 55 47 41 38
258 245 234 243 235 216 220 210 204 218 262 279 296 306 307 309 316 316 311 310 308 305 301 298 297 296 299 308 314 15 80 248 270 236 209 194 185 175 156 190 185 192 202 204 180 137 110 85 105 148 88 37 197 216 254 324 35 146 264 307 278 198 222 270 305 291 332 302 257 244 297 292 279 285 329 265 257 267 41 59 76 66 61 63 59 48 40 35
253 240 234 235 217 207 207 198 196 206 237 269 303 308 310 312 314 318 316 315 314 309 304 300 300 296 295 277 192 13 347 255 271 240 218 205 201 194 182 207 196 198 201 209 203 163 138 132 173 158 98 234 183 171 261 9 25 169 228 283 290 247 247 277 305 292 296 273 243 200 270 264 231 231 333 268 273 43 71 77 76 71 60 57 55 43 36 33
252 237 233 229 209 200 191 189 195 196 228 267 301 308 313 317 317 321 319 317 318 312 308 305 302 292 266 173 99 28 273 239 267 247 222 212 209 207 215 214 200 198 188 197 195 167 172 177 193 183 164 189 171 168 100 79 293 213 208 262 294 299 292 301 294 275 272 254 210 231 274 282 243 193 251 264 289 73 82 70 61 67 61 52 49 40 34 32
247 236 231 224 207 198 186 187 195 200 242 268 293 310 314 317 321 321 320 321 320 314 313 307 300 289 219 153 98 99 252 221 253 243 217 208 208 215 223 221 203 194 179 180 182 163 167 193 186 150 141 138 156 168 105 151 208 202 199 260 268 284 294 280 267 268 254 247 219 226 271 302 326 296 253 297 36 89 78 58 48 62 59 48 44 36 34 34
244 236 227 212 197 189 183 191 199 208 245 274 293 306 313 318 322 322 323 323 320 316 315 305 294 274 184 137 125 204 247 233 239 224 207 206 209 212 207 213 201 190 182 166 184 186 184 200 165 118 127 169 154 108 254 186 145 175 219 302 287 299 294 251 256 279 291 270 204 185 252 303 31 278 219 72 51 81 80 62 46 57 53 45 41 31 32 29
250 230 212 201 192 185 182 191 197 218 261 288 297 308 316 317 319 320 323 324 322 319 315 303 266 208 156 98 181 222 239 240 239 216 204 198 191 192 180 192 190 191 199 165 163 183 177 187 151 123 198 159 140 305 213 185 129 157 42 326 300 341 323 275 278 298 34 238 186 155 278 304 153 234 227 95 71 76 79 68 51 57 48 44 37 32 34 23
252 226 204 197 190 186 185 189 203 248 282 292 297 310 315 316 321 320 323 326 323 320 312 296 235 186 152 339 230 229 242 248 247 213 188 178 173 184 175 173 172 186 204 169 145 150 155 178 153 136 150 122 161 230 102 65 86 287 32 24 303 355 325 283 46 27 348 256 185 139 275 283 254 245 257 68 100 86 72 66 60 59 49 46 36 35 34 23
251 222 197 190 186 186 186 190 230 272 289 291 295 306 312 317 319 318 324 327 325 324 312 279 180 162 149 250 248 242 245 245 240 211 189 192 189 187 179 152 147 153 159 149 137 131 145 167 138 110 110 103 148 155 42 8 17 321 348 26 347 352 283 293 345 14 332 326 135 115 222 264 272 268 300 357 115 96 83 76 64 58 53 47 38 38 31 25
246 218 196 195 197 193 190 203 255 279 284 284 290 304 311 315 316 319 326 327 332 337 353 122 150 141 104 278 263 253 241 233 227 217 207 207 197 185 182 163 144 136 140 141 131 125 134 140 119 108 197 20 63 85 13 347 5 34 282 309 338 196 266 310 305 191 212 321 85 121 203 272 277 282 0 17 89 94 100 92 67 63 57 46 42 37 29 23
241 217 203 206 210 205 202 222 264 276 279 280 290 305 309 313 316 321 327 338 3 52 82 118 142 127 26 271 240 232 230 219 216 213 204 199 201 188 166 158 143 136 143 141 135 136 105 91 86 113 161 60 77 94 44 357 337 355 179 244 270 199 273 318 316 235 206 21 56 130 224 281 279 278 34 39 72 92 103 99 76 68 57 48 45 34 33 22
235 213 203 212 216 210 208 230 269 276 278 281 292 305 309 315 314 314 337 63 86 77 80 126 136 109 283 232 209 261 221 194 193 188 186 190 195 174 149 139 127 129 127 118 129 132 52 47 36 337 54 70 107 105 64 309 284 308 40 218 244 207 238 297 307 324 40 86 173 323 239 255 274 281 7 27 68 96 101 100 84 73 62 53 48 39 33 26
228 212 212 223 216 206 207 239 276 282 284 286 300 309 312 322 316 283 130 123 100 63 53 107 118 98 271 215 198 231 145 160 168 163 171 171 167 164 145 126 121 115 92 59 73 88 9 20 69 48 23 54 133 120 158 232 217 206 201 201 255 251 234 255 269 299 25 26 293 280 254 261 275 283 7 25 59 95 99 99 88 75 69 57 49 46 33 28
222 210 217 228 217 204 200 248 286 285 290 291 306 318 327 0 26 183 161 136 122 112 212 216 159 149 250 258 214 123 106 135 149 154 157 150 151 145 117 106 105 104 96 81 329 92 100 52 68 172 224 185 185 176 197 213 182 180 192 172 199 245 250 243 249 260 354 349 287 251 248 259 270 280 13 22 53 92 99 94 84 74 71 64 56 47 35 36
216 204 217 230 221 207 190 246 293 290 296 298 308 352 136 63 25 314 245 175 208 204 191 207 195 199 268 274 155 131 122 124 134 162 159 154 151 127 93 71 61 65 110 159 189 114 106 127 193 219 215 200 201 203 206 197 144 144 141 152 204 233 264 267 258 267 151 185 272 247 243 268 266 283 7 18 64 83 92 93 86 78 73 61 61 50 37 38
211 205 223 225 213 206 198 252 291 290 299 302 298 143 183 169 122 290 276 261 246 235 246 232 211 248 262 203 160 155 139 103 48 147 162 164 153 141 118 50 85 74 238 173 150 54 87 155 223 231 216 202 202 204 209 202 121 106 144 222 265 241 256 266 255 283 184 178 264 236 191 270 267 301 6 25 70 66 83 106 101 93 86 65 61 51 35 27
211 214 227 221 205 218 233 258 288 289 295 296 276 221 234 203 143 222 112 289 273 246 244 249 247 265 260 236 193 165 136 207 291 210 173 160 149 174 177 90 139 193 224 140 106 55 95 209 238 237 189 141 145 156 170 203 159 102 122 190 265 249 277 284 276 313 25 174 259 212 186 261 274 27 27 37 75 66 63 92 98 98 91 70 61 51 39 29
212 216 220 215 209 233 246 265 283 285 286 280 259 221 253 305 69 58 100 281 293 274 233 231 231 250 248 257 217 172 183 213 205 233 184 156 143 187 150 132 168 166 156 180 160 150 186 241 243 214 131 153 216 139 128 121 113 130 144 166 245 251 310 279 286 332 0 166 266 226 231 273 275 69 49 44 78 85 72 77 76 75 85 79 72 60 47 35
212 212 210 209 210 224 241 268 277 277 274 261 249 238 248 300 146 106 81 29 290 281 246 218 208 226 225 238 197 177 208 213 175 213 183 160 144 155 165 167 159 156 200 202 180 182 224 246 221 118 133 169 216 220 149 138 233 233 203 196 225 237 217 228 280 334 337 355 0 311 307 293 254 219 114 72 76 82 76 81 74 59 68 73 66 57 45 33
208 206 202 203 205 215 232 258 267 259 248 236 239 235 226 231 178 127 75 25 287 291 282 225 203 219 199 153 168 174 181 210 206 205 178 168 151 138 193 169 144 201 211 182 179 222 248 242 115 102 121 151 197 236 187 159 193 274 234 205 211 224 226 234 325 6 359 343 347 21 321 293 291 264 162 144 96 78 61 75 86 73 60 62 61 52 34 27
203 205 208 207 198 206 218 243 254 230 210 220 227 212 199 195 173 148 83 41 275 272 249 196 181 185 176 137 162 148 109 242 252 109 156 172 160 125 160 169 105 214 187 148 171 232 256 247 148 157 150 152 196 242 221 168 145 276 244 198 201 208 217 229 177 90 93 259 293 51 194 272 304 292 176 164 123 100 87 82 98 97 77 77 73 59 34 25
204 212 216 207 193 202 201 195 211 181 171 233 208 186 190 186 177 174 73 7 273 211 142 209 194 152 170 182 166 139 161 245 91 77 125 150 174 82 130 191 157 202 167 123 188 239 222 230 168 165 140 152 197 238 224 162 129 241 237 154 160 175 193 199 163 167 220 256 320 7 123 264 287 262 196 155 124 119 149 127 128 129 115 113 98 68 50 33
207 215 213 198 196 206 199 176 185 177 197 225 176 179 180 178 182 134 74 276 274 119 122 240 99 110 149 70 71 117 200 264 108 228 0 95 167 58 116 209 175 180 162 134 207 261 190 197 205 172 146 178 209 224 190 154 149 244 202 123 132 150 158 139 127 160 303 36 306 293 138 254 272 260 177 146 151 220 205 181 179 165 156 149 136 114 57 29
209 213 207 195 200 210 210 217 204 194 227 188 162 178 171 171 175 79 75 234 253 86 103 128 133 73 51 92 51 66 39 22 120 248 357 83 125 67 157 205 151 149 99 123 210 258 34 234 210 156 156 205 214 253 179 167 194 212 129 97 72 78 89 85 104 116 41 15 240 232 177 216 272 242 159 199 255 237 199 182 194 178 174 175 160 163 151 109
208 212 207 201 206 210 211 222 223 213 213 178 168 167 159 161 131 98 224 229 138 142 172 116 166 135 104 122 25 344 97 29 18 24 28 75 25 38 127 161 101 116 21 15 261 258 314 296 194 145 172 193 147 73 164 176 166 135 107 72 46 31 43 48 56 87 52 286 221 203 188 184 263 267 191 197 228 198 163 167 193 181 179 188 181 184 187 174
208 212 213 212 209 205 199 213 220 216 199 177 168 150 148 141 79 184 222 219 83 167 139 145 182 131 135 144 166 204 122 28 336 106 112 131 50 45 75 120 81 72 2 331 299 303 329 331 265 232 169 130 95 69 35 13 66 105 89 79 73 341 7 25 356 50 139 256 235 213 196 178 233 262 228 223 245 196 179 179 181 178 182 188 185 191 198 190
210 215 220 219 210 203 202 211 215 212 198 176 162 135 127 176 215 214 214 96 164 201 166 171 180 158 160 143 154 178 145 146 204 142 145 143 147 171 177 173 155 83 332 252 262 335 302 244 265 303 195 133 106 77 25 6 34 83 96 102 100 330 349 348 307 104 224 251 253 239 156 201 242 244 212 235 272 265 241 208 180 175 177 180 185 191 192 193
214 219 223 224 216 208 210 214 214 207 193 173 156 129 124 206 223 202 182 190 203 182 146 133 121 138 147 139 187 184 137 182 191 167 146 119 151 219 254 204 163 128 124 202 191 344 289 289 306 145 266 179 146 145 170 223 143 145 148 137 130 131 168 261 268 269 267 271 270 212 180 247 275 270 192 231 267 273 264 233 185 171 172 175 180 186 186 191
215 218 224 228 225 220 215 213 216 206 187 168 156 163 185 223 227 167 180 209 196 125 110 117 110 114 145 174 212 178 146 222 184 147 130 120 142 222 247 225 177 124 102 139 175 177 207 297 218 177 228 193 175 178 161 145 152 184 166 136 149 156 171 215 221 213 255 284 292 231 180 202 232 246 223 234 271 304 297 181 153 153 164 168 172 183 187 189
216 218 224 229 227 226 220 217 219 204 181 163 164 189 199 220 221 151 184 192 155 129 62 85 113 124 183 235 245 194 177 218 174 133 147 164 174 198 198 202 188 152 130 158 215 167 166 262 253 229 258 172 182 189 123 114 127 217 119 105 170 183 164 192 203 176 179 297 285 208 212 225 195 157 345 1 32 24 38 106 132 148 161 161 176 191 191 190
216 218 223 225 226 226 220 221 219 198 178 161 193 206 214 223 192 176 187 154 155 149 112 79 96 134 209 238 238 220 190 147 155 149 197 200 205 207 200 209 188 175 168 162 195 167 137 271 283 344 339 186 184 192 128 131 181 164 129 188 224 184 134 120 271 133 103 259 261 196 241 282 308 35 10 37 54 52 72 128 146 161 167 173 191 196 193 195
212 215 218 219 223 223 220 221 212 193 181 177 202 211 230 237 185 195 188 140 140 136 131 167 184 166 196 204 211 208 168 135 159 166 212 221 226 203 202 243 187 184 192 166 196 198 143 266 277 151 186 267 218 152 70 59 139 125 178 215 199 117 97 99 248 336 42 243 266 238 233 260 259 254 343 26 173 184 181 179 170 178 185 189 199 200 201 202
204 204 215 219 218 218 220 217 202 187 185 198 209 220 220 200 215 228 187 131 118 134 154 188 196 176 181 189 204 185 163 175 177 175 193 216 245 192 174 211 186 192 200 148 130 233 128 243 282 182 165 282 6 95 60 353 102 131 195 204 119 148 200 115 177 227 235 236 269 273 246 244 224 219 204 209 215 203 194 193 189 193 194 197 203 206 209 209
189 185 226 218 213 216 214 203 189 180 200 203 210 224 202 190 237 242 196 147 101 147 180 193 182 149 167 177 177 167 172 179 171 176 179 178 232 212 169 185 184 207 207 154 160 215 122 176 277 322 186 223 35 92 179 246 47 103 150 25 72 178 185 164 174 188 215 230 249 256 248 254 243 203 177 201 206 188 184 193 198 198 196 198 202 202 206 207
166 176 266 197 202 208 198 186 179 185 206 203 210 215 174 181 230 249 228 178 98 161 190 193 171 145 162 176 172 171 173 170 168 180 194 177 203 231 208 170 149 163 178 160 173 177 116 180 236 315 343 146 167 205 190 189 184 154 164 202 233 210 161 246 231 144 163 201 223 243 246 254 264 195 179 209 207 184 185 190 194 197 198 204 206 203 204 204
154 206 217 173 185 186 177 174 187 201 200 212 214 200 167 162 190 223 255 81 97 126 128 158 174 163 166 169 189 184 156 156 173 176 206 199 189 218 217 165 152 153 122 136 186 204 169 176 185 177 150 185 223 238 207 202 195 176 191 204 201 188 177 243 248 201 162 192 192 225 256 257 264 213 191 225 205 187 189 187 186 195 201 206 211 208 206 206
174 208 160 167 174 168 163 184 215 189 206 220 196 173 154 143 163 194 199 71 83 97 86 120 165 170 176 173 180 174 151 157 183 179 205 209 197 204 202 162 146 141 125 136 199 211 139 129 173 205 199 212 247 277 240 222 171 143 208 207 180 176 174 214 236 222 171 243 144 108 272 263 252 301 243 243 223 197 188 178 180 198 205 208 213 214 214 217
183 186 108 165 171 165 163 211 199 193 222 196 142 130 136 146 160 175 184 180 160 133 122 171 185 193 201 178 157 168 164 166 179 182 202 206 211 222 184 162 145 127 124 153 189 170 100 113 182 266 299 316 315 327 344 18 86 122 253 185 148 185 184 213 229 184 159 241 171 79 261 254 294 331 269 270 237 188 181 182 185 197 205 206 212 217 220 221
136 124 65 170 178 175 182 207 198 205 211 159 160 174 129 136 174 172 182 191 175 146 160 185 191 199 205 161 153 173 184 187 181 194 200 188 213 293 91 155 170 149 155 200 177 175 197 159 141 191 295 316 322 320 318 324 49 195 245 247 190 174 106 88 211 135 215 221 166 209 252 249 302 329 343 8 52 137 186 199 190 194 207 214 218 222 225 222
119 115 30 167 183 192 218 215 191 199 197 181 187 184 163 182 198 186 183 179 168 157 164 180 170 160 161 153 138 158 193 202 195 200 202 190 238 334 17 357 220 188 198 211 156 159 182 174 150 177 221 238 238 221 223 241 226 207 242 241 229 192 162 173 188 185 229 209 172 221 254 266 318 331 336 3 48 89 230 229 215 228 228 226 227 227 226 220
137 142 132 144 179 213 250 324 97 156 188 187 187 182 181 191 216 195 180 178 177 165 149 120 136 140 160 165 155 182 210 215 201 171 176 191 225 292 348 14 347 214 182 130 120 118 113 186 197 196 219 230 224 217 198 155 155 215 233 228 221 200 184 177 146 189 216 212 218 233 236 255 279 278 281 296 357 212 242 225 216 233 232 228 231 233 229 221
129 150 165 151 152 207 225 232 194 192 197 188 186 180 183 189 188 168 188 192 176 161 147 81 144 174 192 176 177 200 205 207 203 176 172 185 202 282 330 69 56 62 142 120 95 96 113 223 220 205 234 243 201 206 195 163 188 210 216 227 222 191 169 179 205 219 191 198 244 236 160 188 243 228 224 245 233 220 237 230 219 226 230 229 227 229 229 221
98 124 182 129 104 194 208 212 203 204 207 207 212 184 184 194 195 186 190 183 156 168 178 185 190 199 194 175 176 192 183 194 210 192 171 174 164 122 22 44 35 246 126 118 326 102 137 229 218 190 237 249 165 198 199 182 215 218 212 230 221 181 176 200 226 226 185 209 254 244 164 205 241 224 207 221 218 210 222 225 220 224 232 229 218 221 227 220
93 64 312 8 49 205 214 179 176 201 208 206 218 213 201 205 203 193 161 133 164 197 195 202 209 205 196 179 174 184 187 193 209 201 182 175 165 147 137 256 254 268 121 136 176 135 160 219 188 165 227 241 203 219 197 185 235 252 241 242 220 182 198 216 231 224 184 228 260 265 243 243 247 229 214 218 212 208 230 240 230 224 229 227 221 224 228 217
115 127 128 51 46 301 280 138 157 197 210 202 216 225 214 211 205 196 160 158 184 201 196 210 216 198 186 187 187 205 208 189 185 194 179 170 179 182 197 202 158 113 151 161 177 232 205 195 130 138 207 251 221 173 142 180 234 248 254 252 207 176 224 231 236 222 203 244 253 260 269 267 260 235 216 228 216 206 242 256 245 235 232 228 228 229 226 217
78 64 99 116 185 203 234 172 168 193 207 201 210 210 201 216 211 196 217 208 193 186 186 210 218 185 150 189 204 222 225 201 190 199 183 180 196 202 209 192 160 162 184 180 176 195 191 184 87 121 200 242 179 148 149 70 356 266 262 250 195 200 236 233 203 204 222 236 245 247 254 260 263 214 178 241 235 213 236 246 244 248 235 212 217 219 214 215
89 40 58 106 189 194 190 207 185 197 210 204 208 199 192 217 204 172 212 258 201 191 192 207 213 184 160 202 216 225 223 195 190 194 165 158 153 113 163 164 155 166 172 165 157 158 160 155 129 156 200 212 118 134 123 56 340 266 257 229 195 216 241 243 227 228 224 216 218 228 237 250 261 171 210 250 242 220 234 236 233 243 225 202 211 210 208 216